TimeEST,TemperatureF,Dew PointF,Humidity,Sea Level PressureIn,VisibilityMPH,Wind Direction,Wind SpeedMPH,Gust SpeedMPH,PrecipitationIn,Events,Conditions,WindDirDegrees,DateUTC
12:15 AM,35.6,12.2,38,30.05,10.0,WNW,23.0,32.2,N/A,,Clear,290,2012-02-26 05:15:00
12:35 AM,33.8,10.4,38,30.07,10.0,WNW,24.2,31.1,N/A,,Clear,290,2012-02-26 05:35:00
12:55 AM,33.8,10.4,38,30.08,10.0,WNW,18.4,27.6,N/A,,Clear,290,2012-02-26 05:55:00
1:15 AM,33.8,12.2,41,30.10,10.0,WNW,25.3,31.1,N/A,,Clear,290,2012-02-26 06:15:00
1:35 AM,33.8,12.2,41,30.12,10.0,WNW,19.6,26.5,N/A,,Clear,300,2012-02-26 06:35:00
2:15 AM,33.8,10.4,38,30.14,10.0,WNW,17.3,20.7,N/A,,Clear,290,2012-02-26 07:15:00
2:35 AM,33.8,10.4,38,30.16,10.0,WNW,12.7,24.2,N/A,,Clear,290,2012-02-26 07:35:00
2:55 AM,32.0,10.4,41,30.17,10.0,West,13.8,20.7,N/A,,Clear,280,2012-02-26 07:55:00
3:55 AM,30.2,10.4,44,30.22,10.0,West,15.0,26.5,N/A,,Clear,280,2012-02-26 08:55:00
4:35 AM,30.2,10.4,44,30.26,10.0,WNW,10.4,16.1,N/A,,Clear,290,2012-02-26 09:35:00
4:55 AM,30.2,10.4,44,30.27,10.0,WNW,16.1,20.7,N/A,,Clear,290,2012-02-26 09:55:00
5:15 AM,30.2,10.4,44,30.28,10.0,WNW,11.5,19.6,N/A,,Clear,300,2012-02-26 10:15:00
5:35 AM,30.2,10.4,44,30.30,10.0,WNW,13.8,18.4,N/A,,Clear,300,2012-02-26 10:35:00
5:55 AM,30.2,10.4,44,30.30,10.0,West,13.8,-,N/A,,Clear,280,2012-02-26 10:55:00
6:15 AM,30.2,10.4,44,30.32,10.0,WNW,11.5,20.7,N/A,,Clear,290,2012-02-26 11:15:00
6:35 AM,30.2,10.4,44,30.33,10.0,WNW,13.8,18.4,N/A,,Clear,300,2012-02-26 11:35:00
6:55 AM,30.2,10.4,44,30.33,10.0,WNW,15.0,19.6,N/A,,Clear,300,2012-02-26 11:55:00
7:15 AM,30.2,10.4,44,30.36,10.0,WNW,15.0,23.0,N/A,,Clear,290,2012-02-26 12:15:00
7:35 AM,30.2,12.2,47,30.37,10.0,WNW,13.8,-,N/A,,Clear,290,2012-02-26 12:35:00
7:55 AM,32.0,12.2,44,30.38,10.0,NW,18.4,24.2,N/A,,Clear,310,2012-02-26 12:55:00
8:55 AM,33.8,12.2,41,30.38,10.0,NNW,19.6,23.0,N/A,,Clear,330,2012-02-26 13:55:00
9:15 AM,35.6,12.2,38,30.39,10.0,WNW,15.0,25.3,N/A,,Clear,300,2012-02-26 14:15:00
9:55 AM,35.6,12.2,38,30.38,10.0,NNW,18.4,26.5,N/A,,Clear,330,2012-02-26 14:55:00
10:15 AM,37.4,12.2,36,30.39,10.0,NW,16.1,21.9,N/A,,Clear,320,2012-02-26 15:15:00
10:35 AM,37.4,12.2,36,30.40,10.0,WNW,17.3,21.9,N/A,,Clear,290,2012-02-26 15:35:00
10:55 AM,39.2,12.2,33,30.40,10.0,WNW,11.5,16.1,N/A,,Clear,300,2012-02-26 15:55:00
11:15 AM,39.2,12.2,33,30.40,10.0,NW,11.5,20.7,N/A,,Clear,320,2012-02-26 16:15:00
11:35 AM,39.2,12.2,33,30.41,10.0,West,15.0,-,N/A,,Clear,280,2012-02-26 16:35:00
11:55 AM,41.0,12.2,31,30.41,10.0,WNW,11.5,23.0,N/A,,Clear,300,2012-02-26 16:55:00
12:15 PM,41.0,12.2,31,30.40,10.0,WNW,13.8,18.4,N/A,,Clear,300,2012-02-26 17:15:00
12:35 PM,42.8,14.0,31,30.40,10.0,NW,11.5,17.3,N/A,,Clear,310,2012-02-26 17:35:00
12:55 PM,42.8,12.2,29,30.39,10.0,WNW,11.5,16.1,N/A,,Clear,290,2012-02-26 17:55:00
1:15 PM,42.8,14.0,31,30.39,10.0,NW,13.8,20.7,N/A,,Clear,310,2012-02-26 18:15:00
1:35 PM,42.8,15.8,34,30.39,10.0,WNW,8.1,16.1,N/A,,Clear,290,2012-02-26 18:35:00
1:55 PM,42.8,14.0,31,30.39,10.0,WNW,8.1,-,N/A,,Clear,300,2012-02-26 18:55:00
2:15 PM,42.8,15.8,34,30.40,10.0,WNW,12.7,-,N/A,,Clear,290,2012-02-26 19:15:00
2:35 PM,44.6,15.8,31,30.39,10.0,WNW,9.2,-,N/A,,Clear,300,2012-02-26 19:35:00
2:55 PM,44.6,17.6,34,30.39,10.0,West,8.1,-,N/A,,Clear,280,2012-02-26 19:55:00
3:15 PM,44.6,15.8,31,30.39,10.0,WSW,9.2,-,N/A,,Clear,250,2012-02-26 20:15:00
3:35 PM,44.6,15.8,31,30.39,10.0,West,4.6,-,N/A,,Clear,260,2012-02-26 20:35:00
3:55 PM,44.6,15.8,31,30.40,10.0,WNW,8.1,-,N/A,,Clear,290,2012-02-26 20:55:00
4:15 PM,44.6,15.8,31,30.40,10.0,WNW,11.5,-,N/A,,Clear,300,2012-02-26 21:15:00
4:35 PM,44.6,15.8,31,30.40,10.0,West,5.8,-,N/A,,Clear,270,2012-02-26 21:35:00
4:55 PM,44.6,15.8,31,30.40,10.0,West,10.4,-,N/A,,Clear,280,2012-02-26 21:55:00
5:15 PM,42.8,15.8,34,30.40,10.0,West,6.9,-,N/A,,Clear,280,2012-02-26 22:15:00
5:35 PM,42.8,15.8,34,30.41,10.0,West,8.1,-,N/A,,Clear,280,2012-02-26 22:35:00
5:55 PM,41.0,15.8,36,30.42,10.0,West,4.6,-,N/A,,Clear,260,2012-02-26 22:55:00
6:15 PM,39.2,15.8,39,30.43,10.0,West,3.5,-,N/A,,Clear,270,2012-02-26 23:15:00
6:35 PM,39.2,15.8,39,30.43,10.0,Calm,Calm,-,N/A,,Clear,0,2012-02-26 23:35:00
6:55 PM,37.4,17.6,45,30.44,10.0,WSW,3.5,-,N/A,,Clear,250,2012-02-26 23:55:00
7:15 PM,37.4,17.6,45,30.44,10.0,SW,3.5,-,N/A,,Clear,220,2012-02-27 00:15:00
7:35 PM,37.4,17.6,45,30.44,10.0,SW,3.5,-,N/A,,Clear,220,2012-02-27 00:35:00
7:55 PM,35.6,15.8,44,30.44,10.0,SW,3.5,-,N/A,,Clear,220,2012-02-27 00:55:00
8:15 PM,35.6,17.6,48,30.44,10.0,Calm,Calm,-,N/A,,Clear,0,2012-02-27 01:15:00
8:35 PM,35.6,17.6,48,30.44,10.0,South,5.8,-,N/A,,Clear,180,2012-02-27 01:35:00
8:55 PM,35.6,19.4,52,30.44,10.0,South,5.8,-,N/A,,Clear,180,2012-02-27 01:55:00
9:15 PM,35.6,21.2,56,30.45,10.0,South,6.9,-,N/A,,Clear,190,2012-02-27 02:15:00
9:35 PM,35.6,19.4,52,30.45,10.0,SSW,5.8,-,N/A,,Clear,200,2012-02-27 02:35:00
9:55 PM,35.6,19.4,52,30.45,10.0,SSW,5.8,-,N/A,,Clear,200,2012-02-27 02:55:00
10:15 PM,33.8,19.4,56,30.44,10.0,SSW,4.6,-,N/A,,Clear,200,2012-02-27 03:15:00
10:35 PM,33.8,19.4,56,30.44,10.0,SSW,8.1,-,N/A,,Clear,210,2012-02-27 03:35:00
10:55 PM,33.8,21.2,60,30.44,10.0,SW,8.1,-,N/A,,Clear,230,2012-02-27 03:55:00
11:15 PM,33.8,21.2,60,30.44,10.0,West,3.5,-,N/A,,Clear,260,2012-02-27 04:15:00
11:35 PM,33.8,21.2,60,30.44,10.0,Calm,Calm,-,N/A,,Clear,0,2012-02-27 04:35:00
11:55 PM,33.8,21.2,60,30.44,10.0,Calm,Calm,-,N/A,,Clear,0,2012-02-27 04:55:00